This is the latest recevied weather packets stored in our database for station/object IW1CGW-13. If no packets are shown the sender has not sent any weather packets the latest 10 day(s).
| Time | Temp. | Humidity | Pressure | Rain* | Wind** | Luminosity | Snow |
|---|---|---|---|---|---|---|---|
| 1777124198 | 23.89° C | 45% | 1014.2 hPa | - | - | - | - |
| 1777123577 | 23.33° C | 44% | 1014.3 hPa | - | - | - | - |
| 1777122957 | 23.89° C | 46% | 1014.3 hPa | - | - | - | - |
| 1777122336 | 23.89° C | 45% | 1014.4 hPa | - | - | - | - |
| 1777121715 | 23.33° C | 46% | 1014.5 hPa | - | - | - | - |
| 1777121094 | 23.33° C | 46% | 1014.5 hPa | - | - | - | - |
| 1777120473 | 23.33° C | 46% | 1014.6 hPa | - | - | - | - |
| 1777119853 | 23.33° C | 47% | 1014.6 hPa | - | - | - | - |
| 1777119232 | 22.22° C | 47% | 1014.6 hPa | - | - | - | - |
| 1777118611 | 23.33° C | 47% | 1014.7 hPa | - | - | - | - |
| 1777117984 | 22.78° C | 48% | 1014.8 hPa | - | - | - | - |
| 1777117362 | 22.22° C | 48% | 1014.9 hPa | - | - | - | - |
| 1777115486 | 22.22° C | 48% | 1015.2 hPa | - | - | - | - |
| 1777114244 | 22.22° C | 48% | 1015.3 hPa | - | - | - | - |
| 1777113623 | 22.22° C | 47% | 1015.4 hPa | - | - | - | - |
| 1777113001 | 21.11° C | 48% | 1015.6 hPa | - | - | - | - |
| 1777112380 | 22.78° C | 48% | 1015.8 hPa | - | - | - | - |
| 1777111757 | 22.22° C | 48% | 1015.8 hPa | - | - | - | - |
| 1777111135 | 21.67° C | 47% | 1015.8 hPa | - | - | - | - |
| 1777110515 | 21.11° C | 48% | 1015.9 hPa | - | - | - | - |
| 1777109271 | 20° C | 47% | 1016 hPa | - | - | - | - |
| 1777108651 | 20.56° C | 48% | 1016.1 hPa | - | - | - | - |
| 1777108026 | 21.11° C | 49% | 1016.1 hPa | - | - | - | - |
| 1777107405 | 19.44° C | 49% | 1016.1 hPa | - | - | - | - |
| 1777106784 | 18.89° C | 49% | 1016.1 hPa | - | - | - | - |
* Rain since midnight (hover to see other rain measurements)
** Current wind speed in m/s (hover to see current wind gust speed)